Stations météo

Publicité
St-Etienne Boutheon, France (7475): Température de l'air & dewpoint: 28.05.2020 01:00:00 - 03.06.2020 01:00:00 (CEST)St-Etienne Boutheon, France (7475): Température de l'air 5cm: 28.05.2020 01:00:00 - 03.06.2020 01:00:00 (CEST)St-Etienne Boutheon, France (7475): Température de l'air -20cm & Température de l'air -100cm: 28.05.2020 01:00:00 - 03.06.2020 01:00:00 (CEST)St-Etienne Boutheon, France (7475): Vitesse du vent & gusts: 28.05.2020 01:00:00 - 03.06.2020 01:00:00 (CEST)St-Etienne Boutheon, France (7475): Direction du vent: 28.05.2020 01:00:00 - 03.06.2020 01:00:00 (CEST)St-Etienne Boutheon, France (7475): reduced air pressure: 28.05.2020 01:00:00 - 03.06.2020 01:00:00 (CEST)St-Etienne Boutheon, France (7475): visibility: 28.05.2020 01:00:00 - 03.06.2020 01:00:00 (CEST)St-Etienne Boutheon, France (7475): Ensoleillement: 28.05.2020 01:00:00 - 03.06.2020 01:00:00 (CEST)St-Etienne Boutheon, France (7475): Quantités de précipitations: 28.05.2020 01:00:00 - 03.06.2020 01:00:00 (CEST)
Date & Time tt [°C] td [°C] tt 5cm [°C] tt -20cm [°C] tt -100cm [°C] ff [km/h] ff [knt] fx [km/h] fx [knt] dd ppp [hPa] vv [km] sd [min] rr [mm]
03.06.2020 01:00:00 14,2 11,0 8,1 22,5 16,2 3 1 5 3 SSE 1013,0 38 0 0,0
03.06.2020 00:00:00 15,1 11,1 9,8 22,9 16,3 5 3 8 4 S 1013,1 44 0 0,0
02.06.2020 23:00:00 17,5 11,7 10,9 23,1 16,2 3 1 8 4 SE 1012,9 47 0 0,0
02.06.2020 22:00:00 20,3 11,2 15,2 23,4 16,2 3 2 11 6 ENE 1012,3 5 0 0,0
02.06.2020 21:00:00 23,5 10,5 21,8 23,5 16,2 6 4 24 13 NNW 1011,6 57 32 0,0
02.06.2020 20:00:00 25,2 9,9 25,9 23,5 16,2 11 6 19 10 NNW 1011,3 46 60 0,0
02.06.2020 19:00:00 26,4 10,1 27,1 23,2 16,2 10 5 28 15 NW 1011,1 31 58 0,0
02.06.2020 18:00:00 25,6 12,1 27,3 22,7 16,2 17 9 35 19 N 1011,7 20 38 0,0
02.06.2020 17:00:00 28,0 10,7 34,6 22,1 16,2 10 5 22 12 NNW 1011,7 55 60 0,0
02.06.2020 16:00:00 27,0 9,8 34,6 21,3 16,2 7 4 37 20 NW 1012,6 27 60 0,0
02.06.2020 15:00:00 26,0 10,2 34,1 20,6 16,2 10 5 24 13 N 1013,4 25 60 0,0
02.06.2020 14:00:00 25,3 11,5 33,0 19,9 16,2 7 4 23 13 WSW 1014,2 18 60 0,0
02.06.2020 13:00:00 23,9 10,6 32,1 19,3 16,2 9 5 28 15 N 1014,9 26 60 0,0
02.06.2020 12:00:00 22,5 12,1 28,7 18,7 16,2 4 2 15 8 N 1015,8 20 60 0,0
02.06.2020 11:00:00 20,1 11,8 21,7 18,7 16,2 7 4 16 9 WNW 1016,7 34 52 0,0
02.06.2020 10:00:00 18,0 12,4 16,9 18,7 16,2 5 3 11 6 SW 1017,4 20 18 0,0
02.06.2020 09:00:00 14,6 11,7 15,0 18,7 16,1 3 2 12 6 NE 1018,3 20 0 0,0
02.06.2020 08:00:00 13,4 11,5 11,1 18,9 16,2 5 3 9 5 NW 1017,9 21 1 0,0
02.06.2020 07:00:00 11,0 9,7 7,7 19,2 16,2 4 2 9 5 NE 1018,1 19 5 0,0
02.06.2020 06:00:00 10,3 9,4 7,0 19,5 16,1 3 2 6 3 E 1017,7 21 0 0,0
02.06.2020 05:00:00 10,9 9,7 8,7 19,8 16,1 0 0 10 5 N 1017,8 20 0 0,0
02.06.2020 04:00:00 11,7 9,9 7,3 20,1 16,1 5 3 9 5 SW 1017,9 36 0 0,0
02.06.2020 03:00:00 10,6 9,2 6,0 20,5 16,1 2 1 6 4 SW 1018,4 38 0 0,0
02.06.2020 02:00:00 11,0 9,4 6,6 20,8 16,1 4 2 5 3 ENE 1018,7 43 0 0,0
02.06.2020 01:00:00 11,7 9,6 7,1 21,2 16,1 3 2 6 3 NNE 1018,6 50 0 0,0
02.06.2020 00:00:00 12,7 9,9 7,9 21,5 16,1 3 1 10 5 ESE 1018,3 48 0 0,0
01.06.2020 23:00:00 14,8 10,0 9,2 21,8 16,1 0 0 9 5 N 1017,6 60 0 0,0
01.06.2020 22:00:00 16,1 9,7 13,7 22,1 16,1 6 4 18 10 ENE 1017,0 60 0 0,0
01.06.2020 21:00:00 18,4 10,2 17,2 22,3 16,1 11 6 30 16 N 1016,2 54 0 0,0
01.06.2020 20:00:00 19,5 12,3 20,1 22,3 16,1 5 3 13 7 WNW 1015,4 51 0 0,0
01.06.2020 19:00:00 20,2 12,4 20,9 22,3 16,1 7 4 18 10 WSW 1014,9 50 0 0,0
01.06.2020 18:00:00 20,9 12,3 22,0 22,1 16,1 12 6 26 14 WNW 1014,5 42 0 0,0
01.06.2020 17:00:00 22,6 12,5 24,8 21,8 16,1 14 8 37 20 WNW 1014,0 60 13 0,0
01.06.2020 16:00:00 26,5 11,0 29,8 21,3 16,1 22 12 36 20 ESE 1013,3 23 55 0,0
01.06.2020 15:00:00 25,9 10,9 24,6 20,8 16,1 23 12 40 21 E 1013,8 30 31 0,0
01.06.2020 14:00:00 23,7 10,4 25,2 20,2 16,0 22 12 42 23 E 1014,4 27 45 0,0
01.06.2020 13:00:00 25,0 11,5 27,5 19,6 16,0 10 6 26 14 SE 1014,3 36 38 0,0
01.06.2020 12:00:00 24,8 12,1 31,4 19,1 16,0 10 6 22 12 ESE 1014,6 24 60 0,0
01.06.2020 11:00:00 22,8 10,6 29,1 18,8 16,0 5 3 15 8 SE 1015,1 23 60 0,0
01.06.2020 10:00:00 21,0 10,2 22,4 18,7 16,0 6 4 13 7 ESE 1015,6 51 55 0,0
01.06.2020 09:00:00 17,9 10,0 21,0 18,8 16,0 7 4 14 8 S 1016,2 41 46 0,0
01.06.2020 08:00:00 16,0 11,0 13,7 19,0 16,0 9 5 13 7 S 1016,1 19 60 0,0
01.06.2020 07:00:00 12,5 10,4 6,5 19,3 16,0 7 4 10 5 S 1016,8 32 38 0,0
01.06.2020 06:00:00 9,9 7,8 5,7 19,6 16,0 3 2 10 5 N 1017,1 40 0 0,0
01.06.2020 05:00:00 10,0 7,8 6,2 19,9 16,0 3 2 7 4 N 1016,8 41 0 0,0
01.06.2020 04:00:00 10,4 8,2 4,8 20,3 16,0 3 2 5 3 SE 1016,5 43 0 0,0
01.06.2020 03:00:00 10,7 8,3 5,1 20,6 16,0 0 0 5 3 N 1016,5 48 0 0,0
01.06.2020 02:00:00 11,0 8,4 7,0 21,0 16,0 6 3 8 4 S 1016,5 44 0 0,0
01.06.2020 01:00:00 13,0 8,9 7,7 21,4 16,0 4 2 8 5 S 1016,1 49 0 0,0
01.06.2020 00:00:00 15,1 8,6 8,5 21,7 16,0 4 2 10 5 SE 1015,6 50 0 0,0
31.05.2020 23:00:00 16,6 8,0 10,3 22,1 16,0 4 2 14 7 SE 1015,3 60 0 0,0
31.05.2020 22:00:00 18,4 8,9 16,1 22,3 16,0 8 4 22 12 S 1014,4 5 0 0,0
31.05.2020 21:00:00 20,8 9,1 19,7 22,4 15,9 10 5 19 10 ENE 1013,3 59 0 0,0
31.05.2020 20:00:00 22,3 8,8 21,6 22,4 15,9 14 7 29 15 ESE 1012,7 58 13 0,0
31.05.2020 19:00:00 23,0 8,7 23,3 22,3 16,0 16 8 24 13 E 1012,3 32 25 0,0
31.05.2020 18:00:00 24,9 9,2 24,6 22,0 15,9 13 7 29 16 ENE 1012,1 48 43 0,0
31.05.2020 17:00:00 23,5 9,1 24,8 21,6 15,9 14 8 54 29 E 1012,5 38 24 0,0
31.05.2020 16:00:00 24,0 8,8 25,1 21,0 15,9 11 6 29 16 E 1012,7 35 31 0,0
31.05.2020 15:00:00 23,4 8,3 26,6 20,4 15,9 13 7 29 16 NE 1013,1 45 42 0,0
31.05.2020 14:00:00 23,6 8,4 30,2 19,7 15,9 7 4 20 11 N 1013,2 20 55 0,0
31.05.2020 13:00:00 22,7 8,4 29,8 19,1 15,9 8 4 20 11 NE 1013,7 45 60 0,0
31.05.2020 12:00:00 21,4 8,6 29,1 18,6 15,9 7 4 19 11 ENE 1014,2 20 60 0,0
31.05.2020 11:00:00 19,5 8,8 26,2 18,3 15,9 5 3 13 7 NE 1014,8 45 60 0,0
31.05.2020 10:00:00 17,4 9,0 24,2 18,3 15,9 6 3 11 6 WNW 1015,6 20 60 0,0
31.05.2020 09:00:00 16,0 8,7 20,2 18,4 15,9 4 2 8 5 W 1015,9 19 60 0,0
31.05.2020 08:00:00 14,5 8,7 9,5 18,6 15,9 2 1 7 4 E 1016,2 34 55 0,0
31.05.2020 07:00:00 8,9 6,9 2,3 18,9 15,8 0 0 4 2 N 1017,0 29 33 0,0
31.05.2020 06:00:00 7,5 6,1 2,3 19,3 15,8 0 0 4 2 N 1016,9 34 0 0,0
31.05.2020 05:00:00 8,7 6,7 2,6 19,7 15,8 3 1 6 3 NNE 1016,5 41 0 0,0
31.05.2020 04:00:00 8,7 6,7 2,5 20,1 15,8 3 2 6 3 ESE 1016,7 40 0 0,0
31.05.2020 03:00:00 9,1 6,9 3,3 20,5 15,8 2 1 6 4 SE 1017,0 44 0 0,0
31.05.2020 02:00:00 10,5 7,2 3,8 20,9 15,8 3 2 6 3 SSE 1016,9 53 0 0,0
31.05.2020 01:00:00 11,9 7,2 5,6 21,3 15,8 3 2 6 3 SE 1016,8 52 0 0,0
31.05.2020 00:00:00 14,4 6,7 8,4 21,7 15,8 3 2 12 6 WSW 1016,3 47 0 0,0
30.05.2020 23:00:00 15,6 5,8 8,7 22,1 15,8 3 2 11 6 W 1015,7 59 0 0,0
30.05.2020 22:00:00 17,3 5,6 11,3 22,3 15,8 5 3 21 11 NE 1015,0 60 0 0,0
30.05.2020 21:00:00 19,9 6,9 18,4 22,4 15,8 13 7 23 13 NE 1014,2 48 34 0,0
30.05.2020 20:00:00 22,2 8,0 23,9 22,4 15,8 19 10 29 15 NNE 1013,5 44 60 0,0
30.05.2020 19:00:00 23,4 7,5 28,2 22,1 15,8 13 7 27 14 NNE 1013,0 49 60 0,0
30.05.2020 18:00:00 24,6 3,3 30,1 21,7 15,8 9 5 25 14 NW 1013,3 57 60 0,0
30.05.2020 17:00:00 24,2 3,5 30,9 21,2 15,8 14 7 31 17 NNW 1013,5 33 60 0,0
30.05.2020 16:00:00 23,5 4,4 31,1 20,5 15,7 8 4 29 16 NE 1014,0 32 60 0,0
30.05.2020 15:00:00 22,8 6,1 31,3 19,7 15,7 5 3 30 16 W 1014,4 31 60 0,0
30.05.2020 14:00:00 22,5 6,3 30,9 19,0 15,8 9 5 26 14 NE 1014,9 35 60 0,0
30.05.2020 13:00:00 21,7 6,4 30,5 18,4 15,7 12 7 23 13 NNE 1015,5 33 60 0,0
30.05.2020 12:00:00 20,4 6,3 28,3 17,9 15,7 6 4 19 10 N 1016,2 23 60 0,0
30.05.2020 11:00:00 18,7 7,5 25,7 17,7 15,7 7 4 14 7 N 1016,9 44 60 0,0
30.05.2020 10:00:00 17,1 6,6 24,0 17,6 15,7 6 3 12 6 NW 1017,6 54 60 0,0
30.05.2020 09:00:00 15,6 6,6 19,6 17,7 15,7 3 2 9 5 W 1018,0 42 60 0,0
30.05.2020 08:00:00 12,9 6,9 8,7 18,0 15,7 2 1 6 3 ENE 1018,6 53 60 0,0
30.05.2020 07:00:00 8,1 5,9 -0,1 18,3 15,7 0 0 5 3 N 1019,5 43 37 0,0
30.05.2020 06:00:00 6,0 4,8 -0,2 18,7 15,7 2 1 6 3 ENE 1019,6 54 0 0,0
30.05.2020 05:00:00 6,6 4,8 0,2 19,1 15,7 3 1 4 2 ESE 1019,6 57 0 0,0
30.05.2020 04:00:00 7,9 5,2 1,2 19,5 15,7 0 0 7 4 N 1019,6 58 0 0,0
30.05.2020 03:00:00 8,4 5,5 2,1 19,9 15,7 3 2 8 4 SSW 1019,6 60 0 0,0
30.05.2020 02:00:00 9,5 5,5 2,7 20,4 15,6 4 2 12 6 SSE 1019,4 60 0 0,0
30.05.2020 01:00:00 10,2 6,0 3,2 20,8 15,7 3 1 9 5 ENE 1019,4 60 0 0,0
30.05.2020 00:00:00 11,9 6,2 4,7 21,2 15,7 4 2 8 4 ESE 1019,1 60 0 0,0
29.05.2020 23:00:00 14,8 5,8 8,0 21,5 15,6 3 2 11 6 SSW 1018,8 58 0 0,0
29.05.2020 22:00:00 16,9 5,5 9,6 21,9 15,7 6 3 9 5 N 1017,8 18 0 0,0
29.05.2020 21:00:00 19,0 5,4 15,5 22,0 15,6 7 4 26 14 N 1017,0 60 34 0,0
29.05.2020 20:00:00 21,9 4,4 22,2 22,1 15,6 15 8 33 18 NNW 1016,4 25 60 0,0
29.05.2020 19:00:00 23,2 4,7 26,7 21,9 15,6 17 9 40 21 NNW 1015,9 20 60 0,0
29.05.2020 18:00:00 23,6 3,5 28,0 21,5 15,6 19 10 36 19 NNE 1015,7 23 60 0,0
29.05.2020 17:00:00 23,9 3,2 29,6 21,0 15,6 22 12 42 23 N 1015,9 18 60 0,0
29.05.2020 16:00:00 23,4 4,3 30,3 20,4 15,6 18 10 42 23 NNW 1016,2 18 60 0,0
29.05.2020 15:00:00 23,2 6,9 29,9 19,7 15,6 14 8 35 19 NNE 1016,6 18 60 0,0
29.05.2020 14:00:00 22,6 7,2 30,0 19,0 15,6 15 8 33 18 NNW 1017,1 18 60 0,0
29.05.2020 13:00:00 21,7 7,1 29,2 18,4 15,6 13 7 28 15 NNW 1017,7 19 60 0,0
29.05.2020 12:00:00 20,5 8,2 27,3 18,0 15,6 7 4 22 12 WNW 1018,4 20 60 0,0
29.05.2020 11:00:00 18,5 8,7 24,9 17,7 15,6 7 4 21 11 NNW 1019,2 23 60 0,0
29.05.2020 10:00:00 17,1 9,0 20,1 17,6 15,6 6 4 19 11 NW 1019,6 53 60 0,0
29.05.2020 09:00:00 14,9 8,4 20,1 17,8 15,6 10 6 20 11 NNW 1020,3 31 60 0,0
29.05.2020 08:00:00 14,9 9,0 9,8 18,0 15,6 2 1 5 3 NNW 1020,5 20 60 0,0
29.05.2020 07:00:00 9,5 7,6 1,6 18,3 15,5 2 1 5 3 SE 1021,7 20 36 0,0
29.05.2020 06:00:00 7,2 6,1 1,6 18,7 15,5 3 2 5 3 ESE 1022,0 18 0 0,0
29.05.2020 05:00:00 8,6 6,4 3,4 19,0 15,5 2 1 10 5 WSW 1021,8 20 0 0,0
29.05.2020 04:00:00 8,6 6,6 3,2 19,4 15,5 5 3 8 4 SE 1022,1 30 0 0,0
29.05.2020 03:00:00 10,0 7,4 3,4 19,8 15,5 3 2 6 3 SE 1022,3 36 0 0,0
29.05.2020 02:00:00 10,9 7,8 4,4 20,2 15,5 4 2 6 3 SSE 1022,5 39 0 0,0
29.05.2020 01:00:00 12,5 7,4 5,7 20,6 15,5 3 2 5 3 NW 1022,6 53 0 0,0
29.05.2020 00:00:00 14,0 7,1 8,3 21,0 15,5 4 2 12 6 WSW 1022,6 55 0 0,0
28.05.2020 23:00:00 16,9 6,1 8,4 21,4 15,5 3 2 10 6 WNW 1022,4 58 0 0,0
28.05.2020 22:00:00 18,3 5,5 12,2 21,7 15,5 5 3 19 11 NNW 1022,2 9 0 0,0
28.05.2020 21:00:00 20,7 5,5 18,9 21,9 15,5 16 8 32 17 NE 1021,5 49 34 0,0
28.05.2020 20:00:00 22,7 6,4 22,9 22,0 15,5 19 10 33 18 ENE 1021,2 36 60 0,0
28.05.2020 19:00:00 24,0 7,2 24,4 21,8 15,5 18 10 30 16 NE 1021,0 41 58 0,0
28.05.2020 18:00:00 24,9 7,5 28,1 21,5 15,5 18 10 39 21 NE 1021,2 30 60 0,0
28.05.2020 17:00:00 25,1 8,1 30,0 20,9 15,5 16 9 35 19 N 1021,6 35 60 0,0
28.05.2020 16:00:00 25,0 9,3 27,6 20,2 15,5 14 7 31 17 NW 1022,3 47 57 0,0
28.05.2020 15:00:00 24,4 9,2 30,7 19,5 15,5 13 7 30 16 N 1023,1 23 60 0,0
28.05.2020 14:00:00 23,6 9,2 30,5 18,8 15,5 11 6 31 17 NNW 1023,9 21 60 0,0
28.05.2020 13:00:00 22,2 9,4 28,9 18,1 15,5 9 5 24 13 WSW 1024,6 23 60 0,0
28.05.2020 12:00:00 21,2 8,5 27,7 17,6 15,4 13 7 21 12 WNW 1025,6 24 60 -
28.05.2020 11:00:00 19,8 8,8 27,1 17,3 15,5 7 4 18 10 NNW 1026,3 0,1 58 0,0
28.05.2020 10:00:00 18,0 8,8 24,3 17,2 15,4 6 3 11 6 NNW 1027,2 22 60 0,0
28.05.2020 09:00:00 16,8 9,0 20,1 17,3 15,5 4 2 8 5 SE 1027,8 28 60 0,0
28.05.2020 08:00:00 13,6 8,6 8,7 17,5 15,4 2 1 5 3 ENE 1028,7 27 60 0,0
28.05.2020 07:00:00 8,9 6,3 2,3 17,9 15,4 3 1 5 3 N 1029,5 31 35 0,0
28.05.2020 06:00:00 6,5 5,4 0,4 18,2 15,4 2 1 7 4 ENE 1029,9 27 0 0,0
28.05.2020 05:00:00 7,2 5,7 0,9 18,6 15,4 0 0 6 3 N 1029,8 30 0 0,0
28.05.2020 04:00:00 7,6 5,9 1,5 19,1 15,4 0 0 6 3 N 1029,9 29 0 0,0
28.05.2020 03:00:00 8,3 5,8 2,0 19,5 15,4 3 2 6 3 SSE 1030,0 34 0 0,0
28.05.2020 02:00:00 8,6 5,9 2,1 19,9 15,4 4 2 5 3 SSE 1030,2 33 0 0,0
28.05.2020 01:00:00 9,2 6,8 3,1 20,4 15,4 3 2 5 3 SE 1030,4 15 0 0,0

tt = Température de l'air
td = dewpoint
tt 5cm = Température de l'air 5cm
tt -20cm = Température de l'air -20cm
tt -100cm = Température de l'air -100cm
ff = Vitesse du vent
fx = gusts
dd = Direction du vent
ppp = reduced air pressure
vv = visibility
sd = Ensoleillement
rr = Quantités de précipitations

stations d'obs. à proximité